Jaipur, India

7:20 AM IST on December 13, 2017 (GMT +0530)
Jaipur

Weather History for VIJP - September, 2012

Change the Weather History Date:

Sunday, September 23, 2012

  Actual Average Record
Temperature  
Mean Temperature 85 °F -  
Max Temperature 95 °F - - ()
Min Temperature 75 °F - - ()
Cooling Degree Days 20    
Growing Degree Days 35 (Base 50)    
Moisture  
Dew Point 68 °F    
Average Humidity 61    
Maximum Humidity 89    
Minimum Humidity 24    
Precipitation  
Precipitation 0.00 in - - ()
Sea Level Pressure  
Sea Level Pressure 29.77 in    
Wind  
Wind Speed 4 mph ()    
Max Wind Speed 9 mph    
Max Gust Speed -    
Visibility 2.1 miles    
Events      
T = Trace of Precipitation, MM = Missing Value Source: Averaged Metar Reports

Daily Weather History Graph

Daily Weather History Graph

Search for Another Location

Airport or City:

Trip Planner

Search our weather history database for the weather conditions in past years. The results will help you decide how hot, cold, wet, or windy it might be!

Date:

Astronomy

Sep. 23, 2012 Rise Set
Actual Time 6:15 AM IST 6:22 PM IST
Civil Twilight 5:52 AM IST 6:45 PM IST
Nautical Twilight 5:25 AM IST 7:12 PM IST
Astronomical Twilight 4:58 AM IST 7:39 PM IST
Moon 1:30 PM IST (9/23) No Moon Set
Length of Visible Light 12h 52m
Length of Day
12h 06m
First Quarter, 55% of the Moon is Illuminated
Sep 23
First Quarter
Sep 30
Full
Oct 8
Last Quarter
Oct 15
New
Oct 22
First Quarter

Hourly Weather History & Observations

Time (IST) Temp. Heat Index Dew Point Humidity Pressure Visibility Wind Dir Wind Speed Gust Speed Precip Events Conditions
12:00 AM 78.8 °F - 71.6 °F 78% 29.80 in 1.9 mi West 6.9 mph - N/A   Haze
1:00 AM 78.8 °F - 71.6 °F 78% 29.80 in 1.9 mi WNW 4.6 mph - N/A   Haze
2:00 AM 77.0 °F - 71.6 °F 83% 29.77 in 1.9 mi Variable 2.3 mph - N/A   Haze
2:30 AM 78 °F - 68 °F 65% 29.71 in 1 mi Calm Calm - -   Haze
2:30 AM 77.0 °F - 71.6 °F 83% 29.77 in 1.9 mi Calm Calm - N/A   Haze
3:00 AM 77.0 °F - 71.6 °F 83% 29.77 in 1.9 mi Calm Calm - N/A   Haze
4:00 AM 77.0 °F - 71.6 °F 83% 29.77 in 1.9 mi Calm Calm - N/A   Haze
5:00 AM 77.0 °F - 71.6 °F 83% 29.77 in 1.9 mi Calm Calm - N/A   Haze
6:00 AM 75.2 °F - 71.6 °F 89% 29.80 in 1.9 mi Calm Calm - N/A   Haze
7:00 AM 77.0 °F - 71.6 °F 83% 29.80 in 1.9 mi Variable 1.2 mph - N/A   Haze
8:00 AM 80.6 °F 83.9 °F 69.8 °F 70% 29.83 in 1.9 mi WNW 5.8 mph - N/A   Haze
8:30 AM 81 °F - 69 °F 58% 29.75 in 2 mi WNW 4.6 mph - -   Haze
9:00 AM 82.4 °F 86.3 °F 69.8 °F 66% 29.86 in 2.5 mi WNW 9.2 mph - N/A   Haze
10:00 AM 86.0 °F 90.4 °F 69.8 °F 58% 29.86 in 2.5 mi WNW 8.1 mph - N/A   Haze
11:00 AM 87.8 °F 92.6 °F 69.8 °F 55% 29.83 in 2.5 mi Variable 8.1 mph - N/A   Haze
11:30 AM 91 °F - 69 °F 40% 29.73 in 2 mi NW 4.6 mph - -   Haze
12:00 PM 89.6 °F 94.7 °F 69.8 °F 52% 29.83 in 2.5 mi WNW 8.1 mph - N/A   Haze
2:00 PM 89.6 °F 93.4 °F 68.0 °F 49% 29.77 in 2.5 mi West 8.1 mph - N/A   Haze
2:30 PM 92 °F - 60 °F 24% 29.67 in 2 mi WNW 4.6 mph - -   Haze
3:00 PM 91.4 °F 94.0 °F 66.2 °F 43% 29.74 in 2.5 mi Variable 4.6 mph - N/A   Haze
4:00 PM 91.4 °F 95.4 °F 68.0 °F 46% 29.74 in 2.5 mi NW 8.1 mph - N/A   Haze
5:00 PM 91.4 °F 95.4 °F 68.0 °F 46% 29.74 in 2.5 mi WNW 8.1 mph - N/A   Haze
5:30 PM 90 °F - 62 °F 29% 29.65 in 2 mi West 4.6 mph - -   Haze
6:00 PM 87.8 °F 90.4 °F 66.2 °F 49% 29.74 in 2.5 mi West 6.9 mph - N/A   Haze
7:00 PM 84.2 °F 87.3 °F 68.0 °F 58% 29.77 in 2.2 mi West 4.6 mph - N/A   Haze
8:00 PM 84.2 °F 87.3 °F 68.0 °F 58% 29.77 in 2.2 mi WNW 3.5 mph - N/A   Haze
8:30 PM 82.4 °F 84.6 °F 66.2 °F 58% 29.80 in 2.2 mi WNW 4.6 mph - N/A   Haze
9:00 PM 82.4 °F 83.9 °F 64.4 °F 54% 29.77 in 2.2 mi West 4.6 mph - N/A   Haze
9:30 PM 80.6 °F 82.3 °F 64.4 °F 58% 29.80 in 2.2 mi WNW 4.6 mph - N/A   Haze
10:30 PM 80.6 °F 82.3 °F 64.4 °F 58% 29.80 in 1.9 mi Variable 2.3 mph - N/A   Haze
11:00 PM 80.6 °F 82.3 °F 64.4 °F 58% 29.80 in 1.9 mi West 4.6 mph - N/A   Haze
11:30 PM 81 °F - 69 °F 58% 29.63 in 1 mi 1.2 mph - -   Haze